Location: Buckhorn Peak
(37.6641°N, 120.1241°W)
Time: 00:59:18
(UTC+00:00)

BlueWalker 3 - Pass Details

Date: 19 December 2025
Orbit: 452 x 463 km, 53.2° (Epoch: 13 January)

Event Time Altitude Azimuth Distance (km) Brightness Sun altitude
Rises 14:32:25 0° 221° (SW) 2,445 5.3 -7.7°
Reaches altitude 10° 14:34:32 10° 218° (SW) 1,578 4.3 -7.3°
Maximum altitude 14:38:04 69° 136° (SE) 489 2.1 -6.7°
Drops below altitude 10° 14:41:38 10° 52° (NE) 1,594 4.9 -6.0°
Sets 14:43:47 0° 50° (NE) 2,473 5.8 -5.6°
